Location: Be Tobo
(6.6442°N, 10.6239°W)
Time: 01:27:58
(UTC+00:00)

NOAA 15 - Pass Details

Date: 18 September 2020
Orbit: 798 x 812 km, 98.7° (Epoch: 21 October)

Event Time Altitude Azimuth Distance (km) Brightness Sun altitude
Rises 19:44:10 0° 166° (SSE) 3,297 7.6 -16.7°
Reaches altitude 10° 19:46:29 10° 165° (SSE) 2,366 6.8 -17.2°
Maximum altitude 19:51:43 82° 77° (ENE) 808 4.5 -18.5°
Drops below altitude 10° 19:56:56 10° 350° (N) 2,365 7.2 -19.8°
Sets 19:59:16 0° 349° (N) 3,295 8.0 -20.4°
